DECAYED

SL-16 DEB, 22404 (Decayed)

Orbit data source: Space-Track

SL-16 DEB, 22404 was space debris in LEO originally from a launch on Fri, 25 Dec 1992 UTC launched from the Tyuratam Missile And Space Complex (TTMTR). Debris objects in space refer to the collection of defunct objects orbiting the Earth. Examples of debris include non-operational satellites, rocket bodies, and fragments generated from explosions, collisions, or faulty payload assembly.

Not visible in the next 10 days
Identifier
22404, 1992-093CV
Orbit
Decayed
Country
Flag of CISCIS
Related business
Manufacturer
Unknown
Mission
Decayed spacecraft
Bus & Motor
Unknown
Mass
Unknown
Launch date (UTC)
1992-12-25 (33 years ago)
Launch vehicle
Unknown
Launch site
Tyuratam Missile And Space Complex (TTMTR)
Object type
Payload
Rocket body
Debris
Shape & HBR
Unknown shape, 0.1 m
Radar Cross Section
Small (<0.1 m²)

Expand to show TLE details & history
Last TLE update: 1 year ago

TLE from 1 year ago
0 SL-16 DEB
1 22404U 92093CV  25139.99475604  .12678666  37304-5  17483-2 0  9998
2 22404  70.9931 308.8361 0016709 277.8850  82.0490 16.34447985710802
Epoch: 2025-05-19T23:52Z
TLE epoch observation values (Epoch: 2025-05-19T23:52:26.921Z)
Latitude
0.00003°
Longitude
72.82456°
Altitude
181.757 km
Speed
7.798 km/s
True Right ascension
20h 35m 20s
True Declination
0° 00' 00"
Sunlit
Object was in full shadow at epoch
Visualization orbit readout
Latitude
Unknown
Longitude
Unknown
Altitude
Unknown
Speed
Unknown
Apparent Right ascension
Unknown
Apparent Declination
Unknown
Sunlit
N/A
Visualization observer readout
Local Sidereal Time
23:16:25
Azimuth
Unknown
Elevation
Unknown
Doppler factor
Unknown
Orbital elements
Apogee altitude
189.284 km
Perigee altitude
167.374 km
Semi-major axis
6,556.466 km
Eccentricity
0.00167
Inclination
70.9931°
RAAN
308.8361°
Arg. of periapsis
277.885°
True anomaly
82.23868°
Mean anomaly
82.049°
Eccentric anomaly
82.14384°
Mean motion
4.08826 °/min
Orbital period
88.06 mins
BSTAR
0.0017483
Loading maneuver chart data...
Computing Atmospheric mass density...
Loading historical data...
Loading historical data...
Loading historical data...
Loading historical data...
Loading historical data...
Loading historical data...
Loading historical data...

Documentation

Showing up to 5 results
|